COSMOS 2457 (733)

Last updated on Fri Jun 19 2026 17:09:56 GMT+0000 (Coordinated Universal Time)

1 36112U 09070B 26170.28409466 -.00000033 00000+0 00000+0 0 9999 2 36112 64.9980 70.7445 0002927 121.9797 70.3947 2.13101026128472
UTC large
Height (km)
Speed (km/s)
/
Latitude / Longitude
Inclination (degrees)
Orbital Period (minutes)
Azimuth
Elevation
Range (km)
Doppler Factor

Next 0 passes for location: London (51.5072 / 0.1276)

No passes found over London.
COSMOS 2457 (733)